TimeCST,TemperatureF,Dew PointF,Humidity,Sea Level PressureIn,VisibilityMPH,Wind Direction,Wind SpeedMPH,Gust SpeedMPH,PrecipitationIn,Events,Conditions,WindDirDegrees,DateUTC
12:15 AM,26.6,21.2,80,30.10,10.0,North,11.5,16.1,N/A,,Overcast,350,2012-12-27 06:15:00
12:35 AM,26.6,21.2,80,30.10,10.0,North,9.2,16.1,N/A,,Overcast,350,2012-12-27 06:35:00
12:55 AM,26.6,21.2,80,30.10,10.0,NNW,11.5,-,N/A,,Overcast,340,2012-12-27 06:55:00
1:15 AM,26.6,21.2,80,30.10,10.0,NNW,10.4,-,N/A,,Overcast,340,2012-12-27 07:15:00
1:35 AM,26.6,21.2,80,30.11,10.0,NNW,11.5,-,N/A,,Overcast,340,2012-12-27 07:35:00
1:55 AM,26.6,21.2,80,30.13,10.0,NNW,11.5,-,N/A,,Overcast,330,2012-12-27 07:55:00
2:15 AM,26.6,21.2,80,30.13,10.0,NNW,9.2,-,N/A,,Overcast,330,2012-12-27 08:15:00
2:35 AM,26.6,21.2,80,30.13,10.0,NNW,11.5,-,N/A,,Overcast,340,2012-12-27 08:35:00
2:55 AM,26.6,21.2,80,30.13,10.0,NNW,10.4,17.3,N/A,,Overcast,340,2012-12-27 08:55:00
3:15 AM,26.6,21.2,80,30.14,10.0,NNW,9.2,-,N/A,,Overcast,340,2012-12-27 09:15:00
3:55 AM,26.6,21.2,80,30.14,10.0,NNW,10.4,-,N/A,,Overcast,340,2012-12-27 09:55:00
4:15 AM,26.6,21.2,80,30.14,10.0,North,9.2,-,N/A,,Overcast,350,2012-12-27 10:15:00
4:55 AM,26.6,21.2,80,30.15,10.0,North,11.5,-,N/A,,Overcast,350,2012-12-27 10:55:00
5:15 AM,26.6,21.2,80,30.15,10.0,North,12.7,-,N/A,,Overcast,350,2012-12-27 11:15:00
5:35 AM,26.6,21.2,80,30.15,10.0,North,10.4,16.1,N/A,,Overcast,350,2012-12-27 11:35:00
5:55 AM,26.6,21.2,80,30.15,10.0,North,8.1,-,N/A,,Overcast,350,2012-12-27 11:55:00
6:45 AM,24.8,19.4,80,30.16,10.0,NNW,13.8,-,N/A,,Overcast,340,2012-12-27 12:45:00
7:45 AM,24.8,19.4,80,30.18,10.0,NNW,11.5,-,N/A,,Overcast,340,2012-12-27 13:45:00
9:45 AM,26.6,19.4,74,30.19,10.0,NNW,9.2,17.3,N/A,,Overcast,340,2012-12-27 15:45:00
10:45 AM,26.6,19.4,74,30.19,10.0,NNW,9.2,-,N/A,,Overcast,340,2012-12-27 16:45:00
11:45 AM,26.6,19.4,74,30.18,10.0,North,8.1,-,N/A,,Overcast,360,2012-12-27 17:45:00
12:45 PM,26.6,19.4,74,30.16,10.0,North,6.9,-,N/A,,Overcast,360,2012-12-27 18:45:00
1:45 PM,26.6,19.4,74,30.14,10.0,North,8.1,-,N/A,,Overcast,350,2012-12-27 19:45:00
2:45 PM,26.6,19.4,74,30.15,10.0,NNW,9.2,-,N/A,,Overcast,340,2012-12-27 20:45:00
3:45 PM,26.6,19.4,74,30.15,10.0,North,9.2,-,N/A,,Overcast,360,2012-12-27 21:45:00
4:45 PM,26.6,19.4,74,30.17,10.0,North,5.8,-,N/A,,Overcast,360,2012-12-27 22:45:00
6:45 PM,26.6,19.4,74,30.16,10.0,North,4.6,-,N/A,,Overcast,350,2012-12-28 00:45:00
7:45 PM,26.6,19.4,74,30.16,10.0,North,6.9,-,N/A,,Overcast,360,2012-12-28 01:45:00
8:15 PM,26.6,21.2,80,30.15,10.0,North,5.8,-,N/A,,Overcast,360,2012-12-28 02:15:00
8:35 PM,26.6,21.2,80,30.14,10.0,North,5.8,-,N/A,,Overcast,10,2012-12-28 02:35:00
8:45 PM,26.6,19.4,74,30.14,10.0,North,5.8,-,N/A,,Overcast,360,2012-12-28 02:45:00
8:55 PM,26.6,21.2,80,30.14,10.0,North,3.5,-,N/A,,Overcast,360,2012-12-28 02:55:00
9:15 PM,26.6,21.2,80,30.14,10.0,North,5.8,-,N/A,,Overcast,350,2012-12-28 03:15:00
9:35 PM,26.6,21.2,80,30.14,10.0,North,4.6,-,N/A,,Overcast,350,2012-12-28 03:35:00
9:55 PM,26.6,21.2,80,30.14,10.0,NNW,3.5,-,N/A,,Overcast,340,2012-12-28 03:55:00
10:15 PM,26.6,21.2,80,30.14,10.0,North,3.5,-,N/A,,Overcast,350,2012-12-28 04:15:00
10:35 PM,26.6,21.2,80,30.14,10.0,NNW,3.5,-,N/A,,Overcast,330,2012-12-28 04:35:00
10:55 PM,26.6,21.2,80,30.14,10.0,North,3.5,-,N/A,,Overcast,350,2012-12-28 04:55:00
11:35 PM,26.6,23.0,86,30.13,10.0,NNW,3.5,-,N/A,,Overcast,340,2012-12-28 05:35:00
11:55 PM,26.6,21.2,80,30.12,10.0,North,4.6,-,N/A,,Overcast,360,2012-12-28 05:55:00